Weather in Semlevo

Russia / Smolensk Oblast     55°02′49″N   33°57′54″E
temp.,
°C
wind,
m/s
gust,
m/s
humid.,
%
clouds,
%
prec.,
mm/h
press.,
hPa
HPBL,
m
8 march, mon
mon800:00−6w51290100 0.1 999860
03:00−6w51289100 0.2 999754
06:00−7w51192100 0.2 1000787
09:00−8nw4108693 0.3 1002796
12:00−6nw368338 0.0 1005706
15:00−5nw357969 0.1 1007989
18:00−6nw2688100 0.1 1009398
21:00−9nnw3894100 0.4 1011439
9 march, tue
tue900:00−11nnw379580 0.1 1013270
03:00−14nnw259777 0.1 101592
06:00−16nnw239858 0.0 101756
09:00−14nnw359366 0.0 1018248
12:00−10nnw358184 0.0 1019716
15:00−9nnw357992 0.1 10201014
18:00−10nnw2689100 0.1 1021273
21:00−14nw229495 0.1 102420
10 march, wed
wed1000:00−17n129353 0.0 102520
03:00−17ne129360 0.0 102620
06:00−16e1295100 0.0 102677
09:00−16e3594100 0.2 1027247
12:00−14ene3486100 0.2 1028377
15:00−12ene347683 0.3 1029584
18:00−15ne24880 0.0 1029107
21:00−19e23920 0.0 103248
11 march, thu
thu1100:00−20ese22930 0.0 103321
03:00−21se22930 0.0 103420
06:00−21se229041 0.0 103421
09:00−18se248348 0.0 1034181
12:00−12sse25720 0.0 1033402
15:00−9s35650 0.0 1032647
18:00−12sse27820 0.0 1030201
21:00−15sse39860 0.0 1031205
12 march, fri
fri1200:00−17sse39870 0.0 1031212
03:00−17sse39930 0.0 1029241
06:00−17sse499752 0.0 1028262
09:00−14sse4109376 0.0 1026322
12:00−8sse61381100 0.0 1023582
15:00−4s71377100 0.0 10211030
18:00−5s71490100 0.1 10191080
21:00−6s71692100 1.2 10181143